| time (UTC) | temp C | wind direction | speed KPH | gust KPH | rain 1hr cm | rain 24hr cm | rain mn cm | humidity % | barometer mb |
| 20260903042518 | 21 | 90 | 3.2 | 8.0 | 0.00 | 1.32 | 0.00 | 100 | 1016.7 |
| 20260903041518 | 21 | 68 | 3.2 | 8.0 | 0.00 | 1.32 | 0.00 | 100 | 1017.0 |
| 20260903040520 | 21 | 135 | 1.6 | 4.8 | 0.00 | 1.32 | 0.00 | 100 | 1016.7 |
| 20260903035520 | 21 | 0.0 | 3.2 | 0.00 | 1.32 | 1.32 | 100 | 1016.1 | |
| 20260903034519 | 21 | 135 | 1.6 | 6.4 | 0.00 | 1.32 | 1.32 | 100 | 1015.9 |
| 20260903033520 | 21 | 135 | 6.4 | 16.1 | 0.00 | 1.32 | 1.32 | 100 | 1015.8 |
| 20260903032520 | 21 | 135 | 6.4 | 11.3 | 0.00 | 1.32 | 1.32 | 100 | 1016.0 |
| 20260903031733 | 21 | 135 | 3.2 | 8.0 | 0.00 | 1.35 | 1.32 | 100 | 1016.0 |
| 20260903030728 | 21 | 135 | 6.4 | 12.9 | 0.00 | 1.50 | 1.32 | 100 | 1015.9 |
| 20260903025520 | 21 | 90 | 6.4 | 9.7 | 0.00 | 2.16 | 1.32 | 100 | 1016.1 |
| 20260903024520 | 21 | 90 | 3.2 | 11.3 | 0.00 | 2.92 | 1.32 | 100 | 1016.3 |
| 20260903023520 | 21 | 90 | 6.4 | 12.9 | 0.00 | 4.24 | 1.32 | 100 | 1016.0 |
| 20260903022520 | 21 | 90 | 4.8 | 11.3 | 0.00 | 4.45 | 1.32 | 100 | 1016.0 |
| 20260903021946 | 21 | 90 | 6.4 | 14.5 | 0.00 | 4.45 | 1.32 | 100 | 1015.6 |
| 20260903020520 | 21 | 90 | 6.4 | 11.3 | 0.00 | 4.50 | 1.32 | 100 | 1015.3 |
| 20260903015518 | 21 | 90 | 3.2 | 9.7 | 0.00 | 4.50 | 1.32 | 100 | 1015.4 |
| 20260903014520 | 21 | 90 | 4.8 | 12.9 | 0.00 | 4.52 | 1.32 | 100 | 1015.7 |
| 20260903013520 | 21 | 90 | 6.4 | 11.3 | 0.00 | 4.55 | 1.32 | 100 | 1015.5 |
| 20260903012520 | 21 | 90 | 9.7 | 17.7 | 0.00 | 4.55 | 1.32 | 100 | 1015.5 |
| 20260903011520 | 21 | 90 | 6.4 | 11.3 | 0.00 | 4.55 | 1.32 | 100 | 1015.5 |
| 20260903010520 | 21 | 90 | 8.0 | 12.9 | 0.00 | 4.55 | 1.32 | 100 | 1015.7 |
| 20260903005520 | 21 | 90 | 4.8 | 11.3 | 0.00 | 4.55 | 1.32 | 100 | 1015.7 |
| 20260903004520 | 21 | 90 | 4.8 | 11.3 | 0.00 | 4.55 | 1.32 | 100 | 1015.8 |
| 20260903003520 | 21 | 90 | 3.2 | 8.0 | 0.00 | 4.55 | 1.32 | 100 | 1015.8 |
| 20260903002520 | 21 | 90 | 1.6 | 4.8 | 0.00 | 4.55 | 1.32 | 100 | 1015.4 |
| 20260903001520 | 22 | 90 | 4.8 | 12.9 | 0.00 | 4.55 | 1.32 | 100 | 1015.5 |
| 20260903000519 | 22 | 90 | 3.2 | 9.7 | 0.00 | 4.55 | 1.32 | 100 | 1015.8 |
| 20260902235731 | 22 | 90 | 3.2 | 11.3 | 0.00 | 4.55 | 1.32 | 100 | 1015.8 |
| 20260902234520 | 22 | 90 | 6.4 | 12.9 | 0.00 | 4.55 | 1.32 | 100 | 1015.7 |
| 20260902233521 | 22 | 90 | 6.4 | 12.9 | 0.00 | 4.55 | 1.32 | 100 | 1015.7 |
| 20260902232520 | 22 | 135 | 6.4 | 12.9 | 0.00 | 4.55 | 1.32 | 100 | 1015.5 |
| 20260902231730 | 23 | 135 | 6.4 | 11.3 | 0.00 | 4.55 | 1.32 | 100 | 1015.5 |
| 20260902230520 | 23 | 135 | 4.8 | 6.4 | 0.00 | 4.55 | 1.32 | 100 | 1015.6 |
| 20260902225520 | 23 | 135 | 3.2 | 6.4 | 0.00 | 4.55 | 1.32 | 100 | 1015.6 |
| 20260902224520 | 23 | 135 | 3.2 | 4.8 | 0.00 | 4.55 | 1.32 | 100 | 1015.6 |
| 20260902223520 | 23 | 135 | 1.6 | 6.4 | 0.00 | 4.55 | 1.32 | 100 | 1015.7 |
| 20260902222520 | 24 | 135 | 3.2 | 6.4 | 0.00 | 4.55 | 1.32 | 100 | 1015.8 |
| 20260902221520 | 24 | 135 | 3.2 | 8.0 | 0.00 | 4.55 | 1.32 | 100 | 1015.6 |
| 20260902220520 | 24 | 158 | 3.2 | 6.4 | 0.00 | 4.55 | 1.32 | 100 | 1015.7 |
| 20260902215520 | 24 | 158 | 3.2 | 6.4 | 0.00 | 4.55 | 1.32 | 100 | 1015.7 |
| 20260902214520 | 24 | 158 | 3.2 | 9.7 | 0.00 | 4.55 | 1.32 | 100 | 1015.8 |
| 20260902213734 | 24 | 158 | 4.8 | 8.0 | 0.00 | 4.55 | 1.32 | 100 | 1015.9 |
| 20260902212944 | 24 | 158 | 3.2 | 9.7 | 0.00 | 4.55 | 1.32 | 100 | 1016.0 |
| 20260902211731 | 23 | 158 | 1.6 | 6.4 | 0.00 | 4.55 | 1.32 | 100 | 1016.1 |
| 20260902210521 | 23 | 158 | 3.2 | 6.4 | 0.00 | 4.55 | 1.32 | 100 | 1016.1 |
| 20260902205521 | 23 | 158 | 6.4 | 12.9 | 0.00 | 4.55 | 1.32 | 100 | 1016.1 |
| 20260902204734 | 23 | 158 | 3.2 | 8.0 | 0.00 | 4.55 | 1.32 | 100 | 1016.2 |
| 20260902203520 | 23 | 293 | 4.8 | 11.3 | 0.00 | 4.55 | 1.32 | 100 | 1016.2 |
| 20260902202520 | 23 | 293 | 4.8 | 8.0 | 0.00 | 4.55 | 1.32 | 100 | 1016.2 |
| 20260902201520 | 23 | 293 | 3.2 | 8.0 | 0.00 | 4.55 | 1.32 | 100 | 1016.0 |
| 20260902200733 | 22 | 293 | 4.8 | 9.7 | 0.00 | 4.55 | 1.32 | 100 | 1015.7 |
| 20260902195520 | 22 | 293 | 1.6 | 4.8 | 0.00 | 4.55 | 1.32 | 100 | 1016.0 |
| 20260902194943 | 22 | 293 | 6.4 | 12.9 | 0.00 | 4.55 | 1.32 | 100 | 1016.2 |
| 20260902193730 | 22 | 293 | 4.8 | 11.3 | 0.00 | 4.55 | 1.32 | 100 | 1016.5 |
| 20260902192518 | 22 | 293 | 4.8 | 8.0 | 0.00 | 4.55 | 1.32 | 100 | 1016.8 |
| 20260902191520 | 23 | 293 | 3.2 | 8.0 | 0.00 | 4.55 | 1.32 | 100 | 1016.8 |
| 20260902190733 | 22 | 293 | 1.6 | 8.0 | 0.00 | 4.55 | 1.32 | 100 | 1016.7 |
| 20260902185520 | 22 | 293 | 3.2 | 8.0 | 0.00 | 4.55 | 1.32 | 100 | 1016.5 |
| 20260902184520 | 21 | 293 | 1.6 | 8.0 | 0.00 | 4.55 | 1.32 | 100 | 1016.3 |
| 20260902183520 | 21 | 0.0 | 3.2 | 0.03 | 4.55 | 1.32 | 100 | 1016.3 | |
| 20260902182520 | 21 | 293 | 3.2 | 6.4 | 0.03 | 4.55 | 1.32 | 100 | 1015.8 |
| 20260902181520 | 20 | 293 | 3.2 | 8.0 | 0.03 | 4.55 | 1.32 | 100 | 1016.2 |
| 20260902180520 | 20 | 293 | 3.2 | 6.4 | 0.05 | 4.55 | 1.32 | 100 | 1016.6 |
| 20260902175730 | 20 | 293 | 1.6 | 4.8 | 0.05 | 4.55 | 1.32 | 100 | 1016.7 |
| 20260902174520 | 20 | 0.0 | 3.2 | 0.08 | 4.55 | 1.32 | 100 | 1017.2 | |
| 20260902173519 | 20 | 0.0 | 3.2 | 0.10 | 4.52 | 1.30 | 100 | 1017.3 | |
| 20260902172733 | 20 | 0.0 | 3.2 | 0.15 | 4.52 | 1.30 | 100 | 1017.2 | |
| 20260902171520 | 20 | 0.0 | 1.6 | 0.20 | 4.52 | 1.30 | 100 | 1017.3 | |
| 20260902170730 | 20 | 0.0 | 3.2 | 0.20 | 4.50 | 1.27 | 100 | 1017.4 | |
| 20260902165520 | 20 | 0.0 | 1.6 | 0.25 | 4.50 | 1.27 | 100 | 1017.9 | |
| 20260902164520 | 20 | 0.0 | 3.2 | 0.30 | 4.47 | 1.24 | 100 | 1017.8 | |
| 20260902163733 | 20 | 293 | 1.6 | 3.2 | 0.28 | 4.42 | 1.19 | 100 | 1018.0 |
| 20260902162518 | 21 | 0.0 | 1.6 | 0.69 | 4.37 | 1.14 | 100 | 1018.5 | |
| 20260902161520 | 21 | 0.0 | 0.0 | 1.04 | 4.32 | 1.09 | 100 | 1018.8 | |
| 20260902160519 | 21 | 0.0 | 3.2 | 1.04 | 4.29 | 1.07 | 100 | 1018.8 | |
| 20260902155518 | 21 | 293 | 1.6 | 4.8 | 0.99 | 4.24 | 1.02 | 100 | 1018.9 |
| 20260902154518 | 20 | 293 | 4.8 | 12.9 | 0.91 | 4.17 | 0.94 | 100 | 1018.9 |
| 20260902153520 | 21 | 135 | 6.4 | 16.1 | 0.89 | 4.14 | 0.91 | 100 | 1019.1 |
| 20260902152942 | 21 | 315 | 11.3 | 22.5 | 0.43 | 3.68 | 0.46 | 100 | 1020.2 |
| 20260902151518 | 21 | 0.0 | 8.0 | 0.03 | 3.28 | 0.05 | 100 | 1018.0 | |
| 20260902150520 | 21 | 90 | 3.2 | 11.3 | 0.00 | 3.25 | 0.03 | 100 | 1017.7 |
| 20260902145519 | 21 | 90 | 3.2 | 11.3 | 0.00 | 3.25 | 0.03 | 100 | 1017.2 |
| 20260902144519 | 21 | 90 | 8.0 | 12.9 | 0.00 | 3.25 | 0.03 | 100 | 1017.0 |
| 20260902143520 | 21 | 135 | 4.8 | 16.1 | 0.00 | 3.25 | 0.03 | 100 | 1017.1 |
| 20260902142519 | 21 | 90 | 6.4 | 11.3 | 0.00 | 3.25 | 0.03 | 100 | 1017.3 |
| 20260902141519 | 21 | 90 | 4.8 | 11.3 | 0.00 | 3.25 | 0.03 | 100 | 1017.4 |
| 20260902140731 | 21 | 90 | 6.4 | 12.9 | 0.00 | 3.38 | 0.03 | 100 | 1017.4 |
| 20260902135520 | 21 | 90 | 6.4 | 12.9 | 0.00 | 3.38 | 0.03 | 100 | 1017.4 |
| 20260902134519 | 21 | 90 | 4.8 | 11.3 | 0.00 | 3.38 | 0.03 | 100 | 1017.4 |
| 20260902133519 | 21 | 90 | 6.4 | 12.9 | 0.00 | 3.38 | 0.03 | 100 | 1017.2 |
| 20260902132518 | 21 | 90 | 6.4 | 12.9 | 0.00 | 3.38 | 0.03 | 100 | 1017.3 |
| 20260902131519 | 21 | 90 | 1.6 | 8.0 | 0.00 | 3.38 | 0.03 | 100 | 1017.5 |
| 20260902130519 | 21 | 90 | 3.2 | 8.0 | 0.00 | 3.38 | 0.03 | 100 | 1017.5 |
| 20260902125519 | 21 | 90 | 3.2 | 8.0 | 0.00 | 3.38 | 0.03 | 100 | 1017.4 |
| 20260902124520 | 21 | 90 | 4.8 | 9.7 | 0.00 | 3.38 | 0.03 | 100 | 1017.0 |
| 20260902123519 | 21 | 90 | 4.8 | 11.3 | 0.00 | 3.38 | 0.03 | 100 | 1016.9 |
| 20260902122518 | 20 | 90 | 1.6 | 4.8 | 0.00 | 3.38 | 0.03 | 100 | 1016.8 |
| 20260902121518 | 20 | 90 | 4.8 | 9.7 | 0.00 | 3.38 | 0.03 | 100 | 1016.5 |
| 20260902120519 | 20 | 90 | 3.2 | 11.3 | 0.00 | 3.38 | 0.03 | 100 | 1016.6 |
| 20260902115942 | 20 | 90 | 1.6 | 4.8 | 0.00 | 3.38 | 0.03 | 100 | 1016.7 |
| 20260902114730 | 20 | 90 | 3.2 | 9.7 | 0.00 | 3.38 | 0.03 | 100 | 1016.6 |
| 20260902113519 | 20 | 90 | 6.4 | 11.3 | 0.00 | 3.38 | 0.03 | 100 | 1016.6 |
| 20260902112732 | 20 | 90 | 4.8 | 11.3 | 0.00 | 3.38 | 0.03 | 100 | 1016.6 |
| 20260902111519 | 20 | 90 | 3.2 | 8.0 | 0.00 | 3.38 | 0.03 | 100 | 1016.5 |
| 20260902110519 | 20 | 90 | 3.2 | 8.0 | 0.00 | 3.38 | 0.03 | 100 | 1016.5 |
| 20260902105519 | 20 | 90 | 1.6 | 4.8 | 0.00 | 3.40 | 0.03 | 100 | 1016.6 |
| 20260902104519 | 20 | 90 | 1.6 | 8.0 | 0.00 | 3.40 | 0.03 | 100 | 1016.7 |
| 20260902103519 | 20 | 0.0 | 3.2 | 0.00 | 3.40 | 0.03 | 100 | 1016.8 | |
| 20260902102519 | 20 | 90 | 1.6 | 4.8 | 0.00 | 3.40 | 0.03 | 100 | 1016.7 |
| 20260902101519 | 20 | 90 | 3.2 | 12.9 | 0.00 | 3.40 | 0.03 | 100 | 1016.8 |
| 20260902100519 | 19 | 90 | 4.8 | 11.3 | 0.00 | 3.40 | 0.03 | 100 | 1016.7 |
| 20260902095519 | 19 | 90 | 3.2 | 9.7 | 0.00 | 3.40 | 0.03 | 100 | 1016.7 |
| 20260902094519 | 19 | 90 | 1.6 | 4.8 | 0.00 | 3.40 | 0.03 | 100 | 1016.8 |
| 20260902093519 | 19 | 0.0 | 0.0 | 0.00 | 3.40 | 0.03 | 100 | 1016.7 | |
| 20260902092519 | 19 | 0.0 | 0.0 | 0.00 | 3.40 | 0.03 | 100 | 1016.8 | |
| 20260902091519 | 19 | 0.0 | 0.0 | 0.00 | 3.40 | 0.03 | 100 | 1016.4 | |
| 20260902090730 | 19 | 0.0 | 0.0 | 0.00 | 3.40 | 0.03 | 100 | 1016.4 | |
| 20260902085519 | 19 | 0.0 | 0.0 | 0.00 | 3.40 | 0.03 | 100 | 1016.4 | |
| 20260902084518 | 19 | 0.0 | 0.0 | 0.00 | 3.40 | 0.03 | 100 | 1016.4 | |
| 20260902083519 | 19 | 0.0 | 0.0 | 0.00 | 3.40 | 0.03 | 100 | 1016.4 | |
| 20260902082728 | 19 | 0.0 | 0.0 | 0.00 | 3.40 | 0.03 | 100 | 1016.1 | |
| 20260902081519 | 19 | 0.0 | 0.0 | 0.00 | 3.40 | 0.03 | 100 | 1016.1 | |
| 20260902080837 | 19 | 0.0 | 0.0 | 0.00 | 3.40 | 0.03 | 100 | 1016.0 | |
| 20260902074519 | 19 | 0.0 | 0.0 | 0.00 | 3.40 | 0.03 | 100 | 1016.0 | |
| 20260902073519 | 19 | 0.0 | 0.0 | 0.00 | 3.40 | 0.03 | 100 | 1015.9 | |
| 20260902072519 | 19 | 0.0 | 3.2 | 0.00 | 3.40 | 0.03 | 100 | 1015.9 | |
| 20260902071519 | 20 | 0.0 | 0.0 | 0.03 | 3.40 | 0.03 | 100 | 1016.0 | |
| 20260902070519 | 20 | 0.0 | 0.0 | 0.03 | 3.40 | 0.03 | 100 | 1016.0 | |
| 20260902065732 | 20 | 0.0 | 0.0 | 0.03 | 3.40 | 0.03 | 100 | 1016.1 | |
| 20260902064519 | 20 | 0.0 | 0.0 | 0.03 | 3.40 | 0.03 | 100 | 1016.1 | |
| 20260902063519 | 20 | 0.0 | 0.0 | 0.03 | 3.40 | 0.03 | 100 | 1016.1 | |
| 20260902062943 | 20 | 0.0 | 0.0 | 0.03 | 3.40 | 0.03 | 100 | 1016.1 | |
| 20260902061519 | 20 | 0.0 | 0.0 | 0.00 | 3.38 | 0.00 | 100 | 1016.1 | |
| 20260902060519 | 20 | 0.0 | 0.0 | 0.00 | 3.38 | 0.00 | 100 | 1016.0 | |
| 20260902055733 | 20 | 0.0 | 0.0 | 0.00 | 3.38 | 0.00 | 100 | 1016.1 | |
| 20260902054519 | 20 | 0.0 | 0.0 | 0.00 | 3.38 | 0.00 | 100 | 1016.1 | |
| 20260902053519 | 20 | 0.0 | 0.0 | 0.00 | 3.38 | 0.00 | 100 | 1016.0 | |
| 20260902052519 | 20 | 0.0 | 0.0 | 0.00 | 3.38 | 0.00 | 100 | 1016.1 | |
| 20260902051519 | 20 | 0.0 | 0.0 | 0.00 | 3.38 | 0.00 | 100 | 1016.1 | |
| 20260902050519 | 20 | 0.0 | 0.0 | 0.00 | 3.38 | 0.00 | 100 | 1016.1 | |
| 20260902045519 | 20 | 0.0 | 1.6 | 0.00 | 3.38 | 0.00 | 100 | 1016.0 | |
| 20260902044519 | 20 | 0.0 | 3.2 | 0.00 | 3.38 | 0.00 | 100 | 1015.7 | |
| 20260902043519 | 20 | 0.0 | 1.6 | 0.00 | 3.38 | 0.00 | 100 | 1015.5 |